1487451600.18,2536,11.75,73366.0,-11.23,-12.07,-12.11,0,*54
1487451601.44,2537,11.81,73374.5,-11.23,-12.07,-12.11,0,*55
1487451602.68,2538,11.75,73374.0,-11.19,-12.07,-12.21,0,*50
1487451603.95,2539,11.75,73372.0,-11.21,-12.07,-12.21,0,*5A
1487451605.21,2540,11.75,73370.8,-11.21,-12.11,-12.21,0,*53
1487451606.5,2541,11.75,73372.5,-11.21,-12.11,-12.11,0,*51
1487451607.76,2542,11.75,73376.0,-11.21,-12.11,-12.21,0,*51
1487451609.02,2543,11.75,73378.3,-11.21,-12.11,-12.21,0,*50
1487451610.31,2544,11.75,73376.8,-11.21,-12.11,-12.11,0,*54
1487451611.6,2545,11.75,73372.8,-11.21,-12.11,-12.11,0,*55
1487451612.89,2546,11.75,73374.3,-11.21,-12.11,-12.11,0,*56
1487451614.16,2547,11.75,73374.0,-11.21,-12.21,-12.35,0,*52
1487451615.4,2548,11.75,73378.8,-11.21,-12.21,-12.21,0,*58
1487451616.69,2549,11.75,73380.0,-11.21,-12.11,-12.11,0,*59
1487451617.93,2550,11.75,73378.8,-11.19,-12.11,-12.21,0,*59
1487451619.19,2551,11.75,73376.3,-11.19,-12.07,-12.11,0,*5C
1487451620.46,2552,11.75,73374.5,-11.21,-12.07,-12.21,0,*57
1487451621.72,2553,11.75,73376.0,-11.19,-12.07,-12.11,0,*5E
1487451623.01,2554,11.75,73374.8,-11.21,-12.07,-12.11,0,*52
1487451624.29,2555,11.81,73378.5,-11.21,-12.07,-12.11,0,*53
1487451625.56,2556,11.75,73372.0,-11.21,-12.07,-12.21,0,*53
1487451626.82,2557,11.75,73368.0,-11.21,-12.07,-12.21,0,*52
1487451628.04,2558,11.75,73372.3,-11.19,-12.21,-12.25,0,*56
1487451629.28,2559,11.75,73374.8,-11.21,-12.21,-12.25,0,*5C
1487451630.52,2560,11.75,73378.3,-11.19,-12.07,-12.25,0,*59
1487451631.77,2561,11.75,73378.0,-11.19,-12.21,-12.35,0,*5D
1487451633.01,2562,11.75,73378.5,-11.21,-12.21,-12.25,0,*54
1487451634.25,2563,11.75,73378.0,-11.21,-12.21,-12.25,0,*55
1487451635.52,2564,11.75,73372.8,-11.21,-12.21,-12.35,0,*53
1487451636.78,2565,11.75,73378.8,-11.21,-12.03,-12.11,0,*54
1487451638.02,2566,11.75,73376.3,-11.21,-12.21,-12.21,0,*54
1487451639.26,2567,11.75,73380.8,-11.21,-12.21,-12.25,0,*51
1487451640.51,2568,11.75,73382.0,-11.21,-12.21,-12.25,0,*5E
1487451641.75,2569,11.75,73382.0,-11.21,-12.21,-12.25,0,*5F
1487451643.01,2570,11.75,73374.0,-11.21,-12.11,-12.21,0,*50
1487451644.25,2571,11.75,73378.8,-11.21,-12.25,-12.25,0,*52
1487451645.49,2572,11.75,73378.0,-11.21,-12.21,-12.25,0,*55
1487451646.78,2573,11.75,73378.5,-11.21,-12.11,-12.35,0,*56
1487451648.02,2574,11.75,73378.0,-11.21,-12.21,-12.25,0,*53
1487451649.24,2575,11.75,73374.8,-11.19,-12.21,-12.25,0,*59
1487451650.5,2576,11.75,73372.5,-11.19,-12.11,-12.11,0,*5E
1487451651.79,2577,11.75,73372.0,-11.21,-12.11,-12.11,0,*54
1487451653.01,2578,11.75,73374.0,-11.19,-12.21,-12.21,0,*50
1487451654.3,2579,11.75,73374.5,-11.21,-12.11,-12.11,0,*5A
1487451655.54,2580,11.75,73374.5,-11.21,-12.21,-12.21,0,*5C
1487451656.83,2581,11.75,73372.3,-11.21,-12.07,-12.11,0,*5A
1487451658.07,2582,11.75,73376.0,-11.19,-12.11,-12.21,0,*56
1487451659.33,2583,11.75,73374.8,-11.19,-12.11,-12.11,0,*54
1487451660.57,2584,11.81,73374.8,-11.19,-12.11,-12.21,0,*50
1487451661.81,2585,11.75,73366.0,-11.21,-12.21,-12.25,0,*5D
1487451663.05,2586,11.75,73368.3,-11.21,-12.25,-12.25,0,*5A
1487451664.29,2587,11.75,73368.8,-11.19,-12.11,-12.25,0,*57
1487451665.53,2588,11.81,73378.3,-11.19,-12.11,-12.21,0,*5C
1487451666.82,2589,11.75,73374.0,-11.21,-12.07,-12.11,0,*52
1487451668.1,2590,11.75,73368.3,-11.21,-12.11,-12.11,0,*5D
1487451669.36,2591,11.75,73368.8,-11.21,-12.11,-12.25,0,*5B
1487451670.61,2592,11.75,73374.8,-11.21,-12.21,-12.25,0,*5B
1487451671.82,2593,11.75,73374.0,-11.19,-12.21,-12.25,0,*51
1487451673.04,2594,11.75,73372.0,-11.19,-12.21,-12.25,0,*56
1487451674.31,2595,11.75,73374.3,-11.21,-12.21,-12.35,0,*5D
1487451675.55,2596,11.75,73374.5,-11.19,-12.11,-12.25,0,*57
1487451676.77,2597,11.75,73368.5,-11.19,-12.21,-12.25,0,*55
1487451678.04,2598,11.75,73370.5,-11.21,-12.21,-12.35,0,*50
1487451679.28,2599,11.75,73370.8,-11.21,-12.21,-12.25,0,*50
1487451680.54,2600,11.75,73368.5,-11.21,-12.11,-12.25,0,*50
1487451681.78,2601,11.75,73372.8,-11.21,-12.21,-12.25,0,*52
1487451683.02,2602,11.75,73376.5,-11.21,-12.21,-12.21,0,*55
1487451684.29,2603,11.75,73378.5,-11.19,-12.11,-12.11,0,*5F
1487451685.55,2604,11.75,73376.5,-11.19,-12.11,-12.11,0,*58
1487451686.81,2605,11.75,73376.8,-11.19,-12.11,-12.11,0,*59
1487451688.08,2606,11.75,73378.5,-11.19,-12.07,-12.11,0,*5D
1487451689.31,2607,11.75,73376.8,-11.19,-12.03,-12.11,0,*58
1487451690.58,2608,11.75,73378.5,-11.19,-12.07,-12.11,0,*53
1487451691.82,2609,11.75,73376.0,-11.19,-12.07,-12.21,0,*51
1487451693.08,2610,11.75,73378.5,-11.19,-12.07,-12.11,0,*5A
1487451694.32,2611,11.75,73378.0,-11.19,-12.07,-12.21,0,*58
1487451695.56,2612,11.75,73374.0,-11.19,-12.07,-12.21,0,*5B
1487451696.85,2613,11.75,73374.5,-11.21,-12.07,-12.11,0,*52
1487451698.08,2614,11.75,73372.5,-11.19,-12.03,-12.11,0,*5A
1487451699.35,2615,11.75,73378.5,-11.19,-12.07,-12.11,0,*5F
1487451700.61,2616,11.81,73380.8,-11.19,-12.07,-12.11,0,*5C
1487451701.87,2617,11.75,73378.0,-11.19,-12.07,-12.11,0,*5D
1487451703.12,2618,11.75,73376.5,-11.19,-12.11,-12.21,0,*56
1487451704.36,2619,11.75,73378.5,-11.19,-12.11,-12.21,0,*57
1487451705.62,2620,11.75,73372.8,-11.19,-12.07,-12.11,0,*59
1487451706.88,2621,11.75,73374.0,-11.19,-12.11,-12.11,0,*5F
1487451708.15,2622,11.75,73376.5,-11.19,-12.11,-12.11,0,*5C
1487451709.41,2623,11.75,73374.8,-11.19,-12.11,-12.11,0,*5D
1487451710.65,2624,11.75,73378.8,-11.19,-12.11,-12.21,0,*59
1487451711.87,2625,11.75,73374.3,-11.19,-12.21,-12.21,0,*5B
1487451713.12,2626,11.75,73372.5,-11.19,-12.21,-12.35,0,*5D
1487451714.35,2627,11.75,73378.3,-11.19,-12.11,-12.25,0,*5E
1487451715.59,2628,11.75,73374.5,-11.19,-12.11,-12.21,0,*55
1487451716.86,2629,11.75,73382.8,-11.19,-12.11,-12.35,0,*51
1487451718.1,2630,11.75,73380.3,-11.19,-12.11,-12.25,0,*58
1487451719.32,2631,11.75,73382.0,-11.19,-12.21,-12.21,0,*5E
1487451720.58,2632,11.75,73378.3,-11.17,-12.15,-12.29,0,*5C
1487451721.8,2633,11.75,73376.0,-11.19,-12.25,-12.47,0,*58
1487451723.04,2634,11.75,73382.5,-11.21,-12.21,-12.25,0,*54
1487451724.27,2635,11.75,73378.3,-11.19,-12.11,-12.25,0,*5D
1487451725.52,2636,11.75,73380.0,-11.19,-12.21,-12.35,0,*5C
1487451726.77,2637,11.75,73382.0,-11.19,-12.21,-12.35,0,*5D
1487451728.03,2638,11.75,73378.0,-11.21,-12.25,-12.35,0,*5D
1487451729.28,2639,11.75,73374.8,-11.19,-12.25,-12.35,0,*57
1487451730.52,2640,11.75,73372.5,-11.19,-12.25,-12.35,0,*59
1487451731.74,2641,11.75,73376.3,-11.19,-12.21,-12.25,0,*5D
1487451732.99,2642,11.75,73374.8,-11.19,-12.21,-12.35,0,*5F
1487451734.25,2643,11.75,73370.0,-11.17,-12.15,-12.29,0,*5A
1487451735.47,2644,11.75,73374.8,-11.19,-12.21,-12.25,0,*58
1487451736.68,2645,11.75,73372.8,-11.19,-12.21,-12.25,0,*59
1487451737.95,2646,11.75,73370.8,-11.17,-12.07,-12.21,0,*54
1487451739.17,2647,11.75,73370.8,-11.19,-12.21,-12.25,0,*5B
1487451740.43,2648,11.75,73368.0,-11.17,-12.15,-12.29,0,*51
1487451741.67,2649,11.75,73370.0,-11.17,-12.21,-12.21,0,*5F
1487451742.89,2650,11.75,73366.8,-11.19,-12.21,-12.25,0,*5D
1487451744.11,2651,11.75,73368.5,-11.19,-12.21,-12.25,0,*5C
1487451745.36,2652,11.75,73368.5,-11.19,-12.21,-12.35,0,*5E
1487451746.57,2653,11.75,73370.0,-11.19,-12.21,-12.25,0,*5E
1487451747.81,2654,11.75,73372.8,-11.19,-12.11,-12.25,0,*5A
1487451749.05,2655,11.75,73376.3,-11.19,-12.11,-12.25,0,*5B
1487451750.28,2656,11.75,73376.5,-11.19,-12.11,-12.25,0,*58
1487451751.5,2657,11.75,73374.8,-11.19,-12.21,-12.25,0,*5A
1487451752.75,2658,11.75,73374.8,-11.19,-12.25,-12.35,0,*50
1487451753.99,2659,11.75,73368.5,-11.19,-12.25,-12.35,0,*51
1487451755.23,2660,11.75,73370.0,-11.19,-12.25,-12.35,0,*5B
1487451756.47,2661,11.75,73366.8,-11.19,-12.25,-12.35,0,*5A
1487451757.69,2662,11.75,73368.0,-11.19,-12.25,-12.25,0,*58
1487451758.93,2663,11.75,73366.8,-11.17,-12.21,-12.21,0,*57
1487451760.17,2664,11.75,73362.0,-11.17,-12.29,-12.21,0,*58
1487451761.41,2665,11.75,73366.5,-11.17,-12.29,-12.29,0,*51
1487451762.66,2666,11.75,73370.3,-11.17,-12.21,-12.29,0,*5A
1487451763.87,2667,11.75,73372.8,-11.19,-12.25,-12.39,0,*50
1487451765.14,2668,11.75,73372.8,-11.17,-12.15,-12.29,0,*53
1487451766.4,2669,11.75,73372.3,-11.17,-12.35,-12.43,0,*5C
1487451767.67,2670,11.75,73372.0,-11.17,-12.21,-12.35,0,*50
1487451768.91,2671,11.75,73368.8,-11.19,-12.11,-12.21,0,*59
1487451770.13,2672,11.75,73368.5,-11.19,-12.21,-12.25,0,*5D
1487451771.37,2673,11.75,73366.5,-11.17,-12.29,-12.21,0,*5E
1487451772.61,2674,11.75,73370.0,-11.19,-12.25,-12.35,0,*5E
1487451773.85,2675,11.75,73370.3,-11.19,-12.35,-12.39,0,*52
1487451775.09,2676,11.75,73366.5,-11.19,-12.25,-12.35,0,*5C
1487451776.36,2677,11.75,73368.0,-11.21,-12.35,-12.39,0,*5B
1487451777.6,2678,11.75,73372.0,-11.19,-12.25,-12.35,0,*52
1487451778.81,2679,11.75,73370.0,-11.19,-12.25,-12.25,0,*52
1487451780.03,2680,11.75,73368.0,-11.19,-12.25,-12.25,0,*54
1487451781.27,2681,11.75,73368.0,-11.19,-12.21,-12.35,0,*50
1487451782.54,2682,11.75,73368.8,-11.21,-12.25,-12.35,0,*5C
1487451783.78,2683,11.75,73372.5,-11.19,-12.25,-12.35,0,*56
1487451785.02,2684,11.75,73372.5,-11.19,-12.35,-12.39,0,*5C
1487451786.26,2685,11.75,73372.3,-11.19,-12.35,-12.39,0,*5D
1487451787.48,2686,11.75,73368.8,-11.19,-12.25,-12.39,0,*5F
1487451788.72,2687,11.75,73374.8,-11.21,-12.25,-12.39,0,*55
1487451790.01,2688,11.75,73370.3,-11.21,-12.35,-12.35,0,*57
1487451791.22,2689,11.75,73370.3,-11.19,-12.25,-12.21,0,*59
1487451792.44,2690,11.75,73372.3,-11.19,-12.25,-12.25,0,*55
1487451793.7,2691,11.75,73374.0,-11.21,-12.11,-12.25,0,*58
1487451794.95,2692,11.75,73372.3,-11.19,-12.21,-12.35,0,*52
1487451796.24,2693,11.75,73376.8,-11.21,-12.35,-12.35,0,*5D
1487451797.48,2694,11.75,73378.3,-11.19,-12.21,-12.35,0,*54
1487451798.7,2695,11.75,73372.0,-11.19,-12.21,-12.39,0,*59
1487451799.94,2696,11.75,73374.8,-11.19,-12.25,-12.35,0,*52
1487451801.18,2697,11.75,73372.0,-11.21,-12.25,-12.25,0,*59
1487451802.43,2698,11.75,73372.3,-11.19,-12.25,-12.35,0,*5C
1487451803.64,2699,11.75,73372.0,-11.19,-12.25,-12.25,0,*5C
1487451804.88,2700,11.75,73372.0,-11.19,-12.11,-12.21,0,*5E
1487451806.1,2701,11.75,73374.0,-11.19,-12.21,-12.25,0,*58
1487451807.36,2702,11.75,73376.5,-11.21,-12.11,-12.25,0,*53
1487451808.6,2703,11.75,73376.5,-11.19,-12.11,-12.25,0,*59
1487451809.88,2704,11.75,73372.5,-11.21,-12.11,-12.11,0,*52
1487451811.13,2705,11.75,73376.0,-11.19,-12.21,-12.35,0,*5D
1487451812.37,2706,11.75,73374.0,-11.21,-12.21,-12.25,0,*54
1487451813.59,2707,11.75,73378.0,-11.19,-12.21,-12.39,0,*53
1487451814.81,2708,11.75,73378.0,-11.19,-12.21,-12.25,0,*51
1487451816.07,2709,11.75,73372.3,-11.21,-12.25,-12.35,0,*5E
1487451817.29,2710,11.75,73374.8,-11.19,-12.21,-12.25,0,*58
1487451818.56,2711,11.75,73378.5,-11.21,-12.25,-12.35,0,*57
1487451819.77,2712,11.75,73376.8,-11.19,-12.25,-12.25,0,*5E
1487451820.99,2713,11.75,73374.3,-11.19,-12.25,-12.25,0,*5F
1487451822.2,2714,11.75,73374.0,-11.19,-12.25,-12.39,0,*55
1487451823.45,2715,11.75,73378.3,-11.19,-12.25,-12.35,0,*58
1487451824.66,2716,11.75,73376.8,-11.19,-12.21,-12.25,0,*5E
1487451825.9,2717,11.75,73376.5,-11.19,-12.11,-12.25,0,*5C
1487451827.14,2718,11.75,73376.0,-11.19,-12.11,-12.25,0,*53
1487451828.36,2719,11.75,73376.5,-11.19,-12.21,-12.25,0,*51
1487451829.59,2720,11.75,73376.5,-11.19,-12.11,-12.25,0,*58
1487451830.86,2721,11.75,73380.0,-11.19,-12.11,-12.35,0,*58
1487451832.11,2722,11.75,73376.3,-11.19,-12.21,-12.35,0,*58
1487451833.37,2723,11.75,73374.0,-11.21,-12.25,-12.35,0,*56
1487451834.59,2724,11.75,73374.8,-11.19,-12.25,-12.25,0,*5B
1487451835.84,2725,11.75,73378.5,-11.19,-12.21,-12.35,0,*5F
1487451837.05,2726,11.75,73372.8,-11.19,-12.21,-12.25,0,*5D
1487451838.32,2727,11.75,73372.3,-11.21,-12.11,-12.21,0,*50
1487451839.56,2728,11.75,73374.0,-11.19,-12.11,-12.21,0,*54
1487451840.82,2729,11.75,73372.5,-11.19,-12.11,-12.11,0,*56
1487451842.06,2730,11.75,73372.5,-11.19,-12.11,-12.21,0,*5D
1487451843.34,2731,11.75,73380.3,-11.17,-12.07,-12.15,0,*52
1487451844.56,2732,11.75,73386.5,-11.19,-12.21,-12.21,0,*5C
1487451845.79,2733,11.75,73380.8,-11.19,-12.21,-12.21,0,*5D
1487451847.02,2734,11.75,73380.8,-11.19,-12.11,-12.25,0,*5D
1487451848.26,2735,11.75,73376.0,-11.21,-12.21,-12.25,0,*54
1487451849.48,2736,11.75,73378.8,-11.19,-12.21,-12.39,0,*51
1487451850.7,2737,11.75,73372.8,-11.19,-12.21,-12.21,0,*59
1487451851.95,2738,11.75,73374.0,-11.19,-12.21,-12.35,0,*53
1487451853.22,2739,11.75,73376.3,-11.19,-12.11,-12.35,0,*51
1487451854.46,2740,11.75,73376.3,-11.19,-12.21,-12.35,0,*5C
1487451855.71,2741,11.75,73378.8,-11.19,-12.25,-12.35,0,*59
1487451856.95,2742,11.75,73378.0,-11.19,-12.25,-12.35,0,*5A
1487451858.17,2743,11.75,73370.3,-11.19,-12.25,-12.39,0,*57
1487451859.38,2744,11.75,73374.5,-11.19,-12.25,-12.39,0,*50
1487451860.6,2745,11.75,73374.8,-11.19,-12.25,-12.39,0,*51
1487451861.81,2746,11.75,73372.3,-11.19,-12.25,-12.39,0,*52
1487451863.03,2747,11.75,73374.3,-11.19,-12.25,-12.39,0,*53
1487451864.27,2748,11.75,73372.0,-11.19,-12.35,-12.39,0,*5D
1487451865.5,2749,11.75,73376.5,-11.19,-12.35,-12.47,0,*55
1487451866.74,2750,11.75,73376.5,-11.19,-12.35,-12.47,0,*5D
1487451867.96,2751,11.75,73376.8,-11.19,-12.25,-12.39,0,*54
1487451869.2,2752,11.75,73374.5,-11.19,-12.35,-12.39,0,*56
1487451870.46,2753,11.75,73378.8,-11.21,-12.25,-12.35,0,*51
1487451871.71,2754,11.75,73376.8,-11.19,-12.25,-12.35,0,*5D
1487451872.95,2755,11.75,73374.5,-11.19,-12.25,-12.35,0,*5C
1487451874.19,2756,11.75,73374.3,-11.19,-12.35,-12.25,0,*5F
1487451875.43,2757,11.75,73374.5,-11.19,-12.25,-12.35,0,*5E
1487451876.68,2758,11.75,73376.8,-11.19,-12.25,-12.35,0,*51
1487451877.89,2759,11.75,73378.3,-11.19,-12.25,-12.25,0,*51
1487451879.13,2760,11.75,73378.8,-11.19,-12.25,-12.35,0,*5A
1487451880.38,2761,11.75,73374.5,-11.19,-12.25,-12.35,0,*5B
1487451881.62,2762,11.75,73374.0,-11.19,-12.25,-12.35,0,*58
1487451882.89,2763,11.75,73380.5,-11.21,-12.21,-12.35,0,*56
1487451884.11,2764,11.75,73378.8,-11.19,-12.21,-12.25,0,*5B
1487451885.36,2765,11.75,73378.8,-11.19,-12.21,-12.35,0,*5B
1487451886.6,2766,11.75,73376.5,-11.19,-12.25,-12.35,0,*5C
1487451887.84,2767,11.75,73374.8,-11.19,-12.21,-12.35,0,*59
1487451889.14,2768,11.75,73372.5,-11.21,-12.35,-12.35,0,*58
1487451890.37,2769,11.75,73374.0,-11.21,-12.25,-12.39,0,*54
1487451891.61,2770,11.75,73372.8,-11.21,-12.25,-12.39,0,*5C
1487451892.86,2771,11.75,73374.5,-11.19,-12.25,-12.35,0,*5A
1487451894.1,2772,11.75,73376.8,-11.19,-12.25,-12.35,0,*59
1487451895.37,2773,11.75,73374.8,-11.19,-12.35,-12.35,0,*59
1487451896.59,2774,11.75,73376.0,-11.19,-12.21,-12.25,0,*5A
1487451897.83,2775,11.75,73376.8,-11.21,-12.21,-12.25,0,*50
1487451899.1,2776,11.75,73382.0,-11.21,-12.21,-12.35,0,*52
1487451900.34,2777,11.75,73382.5,-11.21,-12.21,-12.25,0,*52
1487451901.6,2778,11.75,73376.3,-11.21,-12.35,-12.39,0,*55
1487451902.83,2779,11.75,73372.3,-11.21,-12.39,-12.39,0,*58
1487451904.07,2780,11.75,73372.5,-11.21,-12.39,-12.39,0,*5E
1487451905.34,2781,11.75,73380.3,-11.21,-12.21,-12.35,0,*5A
1487451906.6,2782,11.75,73378.0,-11.19,-12.35,-12.35,0,*57
1487451907.87,2783,11.75,73376.8,-11.19,-12.35,-12.35,0,*56
1487451909.14,2784,11.75,73380.3,-11.21,-12.21,-12.35,0,*5F
1487451910.38,2785,11.75,73384.8,-11.19,-12.25,-12.35,0,*51
1487451911.63,2786,11.75,73382.3,-11.21,-12.21,-12.39,0,*51
1487451912.87,2787,11.75,73378.5,-11.21,-12.21,-12.25,0,*5D
1487451914.09,2788,11.75,73382.5,-11.19,-12.21,-12.25,0,*59
1487451915.33,2789,11.75,73380.5,-11.21,-12.25,-12.39,0,*5A
1487451916.57,2790,11.75,73382.5,-11.19,-12.25,-12.35,0,*55
1487451917.82,2791,11.75,73378.8,-11.19,-12.21,-12.35,0,*50
1487451919.05,2792,11.75,73380.0,-11.21,-12.25,-12.25,0,*5D
1487451920.32,2793,11.75,73384.0,-11.21,-12.21,-12.35,0,*59
1487451921.6,2794,11.75,73380.3,-11.21,-12.21,-12.35,0,*5E
1487451922.83,2795,11.75,73382.3,-11.19,-12.35,-12.47,0,*54
1487451924.12,2796,11.75,73382.5,-11.21,-12.35,-12.53,0,*59
1487451925.36,2797,11.75,73382.5,-11.21,-12.25,-12.39,0,*55
1487451926.62,2798,11.75,73380.8,-11.21,-12.35,-12.39,0,*5B
1487451927.88,2799,11.75,73386.3,-11.21,-12.35,-12.47,0,*53
1487451929.12,2800,11.75,73384.5,-11.21,-12.25,-12.47,0,*5D
1487451930.39,2801,11.75,73384.5,-11.21,-12.35,-12.47,0,*5D
1487451931.63,2802,11.75,73386.0,-11.21,-12.25,-12.39,0,*56
1487451932.86,2803,11.75,73382.5,-11.21,-12.39,-12.47,0,*53
1487451934.1,2804,11.75,73386.8,-11.21,-12.25,-12.39,0,*50
1487451935.36,2805,11.75,73386.3,-11.21,-12.35,-12.39,0,*50
1487451936.6,2806,11.75,73384.5,-11.21,-12.21,-12.39,0,*56
1487451937.84,2807,11.75,73384.0,-11.19,-12.35,-12.47,0,*50
1487451939.11,2808,11.75,73384.5,-11.21,-12.25,-12.35,0,*50
1487451940.32,2809,11.75,73382.5,-11.19,-12.25,-12.39,0,*56
1487451941.56,2810,11.75,73380.8,-11.21,-12.25,-12.47,0,*5C
1487451942.85,2811,11.75,73382.0,-11.21,-12.35,-12.53,0,*59
1487451944.11,2812,11.75,73382.0,-11.21,-12.39,-12.61,0,*57
1487451945.35,2813,11.75,73382.8,-11.21,-12.25,-12.47,0,*5F
1487451946.56,2814,11.75,73382.8,-11.19,-12.25,-12.47,0,*53
1487451947.8,2815,11.75,73382.5,-11.19,-12.25,-12.53,0,*57
1487451949.07,2816,11.75,73380.0,-11.21,-12.25,-12.53,0,*5F
1487451950.33,2817,11.75,73382.8,-11.21,-12.35,-12.47,0,*5A
1487451951.59,2818,11.75,73382.8,-11.21,-12.35,-12.47,0,*55
1487451952.83,2819,11.75,73384.3,-11.21,-12.25,-12.47,0,*55
1487451954.07,2820,11.75,73388.5,-11.21,-12.25,-12.39,0,*56
1487451955.33,2821,11.75,73384.5,-11.21,-12.35,-12.47,0,*5F
1487451956.59,2822,11.75,73378.5,-11.21,-12.35,-12.47,0,*5C
1487451957.81,2823,11.75,73376.3,-11.23,-12.25,-12.39,0,*57
1487451959.05,2824,11.75,73380.5,-11.21,-12.25,-12.39,0,*52
1487451960.32,2825,11.75,73376.8,-11.21,-12.25,-12.35,0,*5F
1487451961.56,2826,11.75,73376.5,-11.21,-12.25,-12.25,0,*5D
1487451962.82,2827,11.75,73380.5,-11.21,-12.25,-12.35,0,*5D
1487451964.06,2828,11.75,73374.3,-11.21,-12.25,-12.39,0,*5E
1487451965.3,2829,11.75,73376.8,-11.21,-12.39,-12.47,0,*5B
1487451966.53,2830,11.75,73374.0,-11.21,-12.39,-12.39,0,*5A
1487451967.77,2831,11.75,73374.3,-11.19,-12.35,-12.47,0,*55
1487451969.0,2832,11.75,73382.0,-11.21,-12.47,-12.47,0,*58
1487451970.24,2833,11.75,73384.3,-11.21,-12.39,-12.39,0,*59
1487451971.47,2834,11.75,73380.3,-11.21,-12.39,-12.47,0,*57
1487451972.73,2835,11.75,73376.8,-11.21,-12.47,-12.53,0,*5A
1487451973.97,2836,11.75,73376.3,-11.21,-12.47,-12.39,0,*55
1487451975.21,2837,11.75,73374.3,-11.21,-12.25,-12.39,0,*50
1487451976.47,2838,11.75,73372.0,-11.21,-12.35,-12.39,0,*5E
1487451977.74,2839,11.75,73378.8,-11.21,-12.25,-12.35,0,*52
1487451978.97,2840,11.75,73380.0,-11.21,-12.25,-12.25,0,*5D
1487451980.24,2841,11.75,73376.8,-11.21,-12.25,-12.35,0,*5D
1487451981.51,2842,11.75,73378.8,-11.21,-12.25,-12.35,0,*5E
1487451982.77,2843,11.75,73378.8,-11.21,-12.35,-12.39,0,*52
1487451983.99,2844,11.75,73376.5,-11.19,-12.25,-12.25,0,*52
1487451985.26,2845,11.75,73380.5,-11.21,-12.21,-12.35,0,*5D
1487451986.52,2846,11.75,73378.3,-11.21,-12.25,-12.35,0,*5A
1487451987.79,2847,11.75,73380.3,-11.21,-12.25,-12.35,0,*5B
1487451989.05,2848,11.75,73378.8,-11.21,-12.35,-12.39,0,*59
1487451990.29,2849,11.75,73380.3,-11.21,-12.25,-12.39,0,*59
1487451991.53,2850,11.75,73382.5,-11.21,-12.25,-12.39,0,*51
1487451992.79,2851,11.75,73380.8,-11.21,-12.35,-12.39,0,*51
1487451994.01,2852,11.75,73378.8,-11.23,-12.25,-12.39,0,*51
1487451995.25,2853,11.75,73380.3,-11.23,-12.35,-12.39,0,*51
1487451996.49,2854,11.75,73376.0,-11.23,-12.25,-12.35,0,*5B
1487451997.73,2855,11.75,73378.3,-11.23,-12.35,-12.39,0,*57
1487451998.97,2856,11.75,73374.5,-11.23,-12.35,-12.47,0,*5D
1487452000.19,2857,11.75,73378.8,-11.23,-12.25,-12.39,0,*54
1487452001.43,2858,11.75,73378.0,-11.25,-12.29,-12.39,0,*51
1487452002.65,2859,11.75,73376.3,-11.23,-12.21,-12.21,0,*57
1487452003.89,2860,11.75,73378.8,-11.23,-12.21,-12.35,0,*58
1487452005.14,2861,11.75,73374.8,-11.23,-12.25,-12.35,0,*5D
1487452006.36,2862,11.75,73376.3,-11.23,-12.21,-12.47,0,*5F
1487452007.6,2863,11.75,73376.5,-11.21,-12.21,-12.25,0,*58
1487452008.85,2864,11.75,73378.0,-11.23,-12.21,-12.35,0,*5C
1487452010.12,2865,11.75,73376.8,-11.21,-12.21,-12.35,0,*5F
1487452011.36,2866,11.75,73378.0,-11.21,-12.21,-12.25,0,*5D
1487452012.63,2867,11.75,73378.8,-11.21,-12.25,-12.35,0,*59
1487452013.89,2868,11.75,73376.5,-11.21,-12.25,-12.35,0,*56
1487452015.11,2869,11.75,73380.3,-11.23,-12.25,-12.25,0,*54
1487452016.35,2870,11.75,73380.3,-11.23,-12.35,-12.39,0,*50
1487452017.57,2871,11.75,73382.8,-11.23,-12.21,-12.47,0,*5D
1487452018.81,2872,11.75,73378.3,-11.23,-12.25,-12.35,0,*5F
1487452020.03,2873,11.75,73376.5,-11.23,-12.25,-12.39,0,*52
1487452021.26,2874,11.75,73376.3,-11.23,-12.35,-12.47,0,*5D
1487452022.5,2875,11.75,73374.0,-11.23,-12.35,-12.47,0,*5C
1487452023.72,2876,11.75,73378.8,-11.23,-12.25,-12.47,0,*5E
1487452024.93,2877,11.75,73376.5,-11.23,-12.25,-12.39,0,*56
1487452026.15,2878,11.75,73378.0,-11.23,-12.25,-12.39,0,*59
1487452027.39,2879,11.75,73378.3,-11.25,-12.29,-12.43,0,*5F
1487452028.63,2880,11.75,73376.3,-11.23,-12.35,-12.47,0,*56
1487452029.87,2881,11.75,73378.0,-11.23,-12.35,-12.39,0,*5E
1487452031.11,2882,11.75,73376.0,-11.21,-12.25,-12.25,0,*53
1487452032.37,2883,11.75,73376.5,-11.21,-12.25,-12.35,0,*53
1487452033.61,2884,11.75,73376.8,-11.21,-12.25,-12.39,0,*58
1487452034.85,2885,11.75,73374.0,-11.23,-12.35,-12.47,0,*53
1487452036.09,2886,11.75,73378.0,-11.21,-12.25,-12.39,0,*5A
1487452037.33,2887,11.75,73378.8,-11.21,-12.21,-12.39,0,*5F
1487452038.59,2888,11.75,73376.0,-11.21,-12.35,-12.47,0,*5C
1487452039.83,2889,11.75,73376.3,-11.21,-12.25,-12.39,0,*55
1487452041.07,2890,11.75,73376.5,-11.21,-12.25,-12.47,0,*54
1487452042.31,2891,11.75,73378.3,-11.25,-12.29,-12.43,0,*59
1487452043.53,2892,11.75,73380.0,-11.23,-12.25,-12.39,0,*5D
1487452044.74,2893,11.75,73374.8,-11.23,-12.25,-12.39,0,*5C
1487452045.98,2894,11.75,73370.3,-11.23,-12.47,-12.53,0,*53
1487452047.25,2895,11.75,73378.3,-11.23,-12.35,-12.53,0,*57
1487452048.46,2896,11.75,73378.3,-11.23,-12.25,-12.47,0,*50
1487452049.7,2897,11.75,73376.0,-11.23,-12.35,-12.47,0,*50
1487452050.94,2898,11.75,73378.8,-11.23,-12.35,-12.47,0,*5F
1487452052.18,2899,11.75,73378.0,-11.23,-12.35,-12.39,0,*57
1487452053.4,2900,11.75,73376.3,-11.23,-12.25,-12.39,0,*57
1487452054.61,2901,11.75,73378.3,-11.23,-12.25,-12.39,0,*56
1487452055.85,2902,11.75,73376.8,-11.23,-12.35,-12.39,0,*54
1487452057.09,2903,11.75,73374.5,-11.23,-12.35,-12.47,0,*5C
1487452058.31,2904,11.75,73378.5,-11.23,-12.25,-12.47,0,*5A
1487452059.54,2905,11.75,73374.3,-11.25,-12.39,-12.43,0,*54
1487452060.78,2906,11.75,73372.3,-11.25,-12.29,-12.43,0,*56
1487452061.99,2907,11.75,73376.0,-11.23,-12.25,-12.39,0,*50
1487452063.23,2908,11.75,73378.3,-11.23,-12.35,-12.39,0,*5E
1487452064.5,2909,11.75,73376.5,-11.21,-12.21,-12.35,0,*54
1487452065.72,2910,11.75,73376.8,-11.23,-12.25,-12.25,0,*5B
1487452066.96,2911,11.75,73374.0,-11.23,-12.25,-12.35,0,*5B
1487452068.21,2912,11.75,73376.5,-11.23,-12.25,-12.35,0,*58
1487452069.45,2913,11.75,73368.5,-11.23,-12.25,-12.35,0,*59
1487452070.67,2914,11.75,73378.0,-11.23,-12.25,-12.21,0,*5B
1487452071.93,2915,11.75,73376.3,-11.23,-12.11,-12.35,0,*58
1487452073.15,2916,11.75,73376.5,-11.23,-12.21,-12.25,0,*59
1487452074.39,2917,11.75,73376.3,-11.23,-12.11,-12.25,0,*5B
1487452075.63,2918,11.75,73374.8,-11.21,-12.21,-12.25,0,*55
1487452076.9,2919,11.75,73376.5,-11.21,-12.21,-12.35,0,*55
1487452078.15,2920,11.75,73374.5,-11.23,-12.25,-12.35,0,*59
1487452079.36,2921,11.75,73376.5,-11.23,-12.25,-12.25,0,*59
1487452080.58,2922,11.75,73378.5,-11.23,-12.21,-12.25,0,*5E
1487452081.8,2923,11.75,73376.5,-11.23,-12.21,-12.25,0,*5F
1487452083.01,2924,11.75,73374.0,-11.23,-12.21,-12.25,0,*58
1487452084.25,2925,11.75,73378.5,-11.25,-12.25,-12.25,0,*5B
1487452085.47,2926,11.75,73378.0,-11.23,-12.21,-12.25,0,*5A
1487452086.72,2927,11.75,73376.8,-11.23,-12.21,-12.35,0,*5A
1487452087.96,2928,11.75,73374.5,-11.23,-12.21,-12.35,0,*55
1487452089.2,2929,11.75,73374.5,-11.23,-12.11,-12.25,0,*56
1487452090.42,2930,11.75,73374.5,-11.23,-12.21,-12.21,0,*59
1487452091.66,2931,11.75,73372.5,-11.23,-12.11,-12.21,0,*5B
1487452092.91,2932,11.75,73378.8,-11.23,-12.21,-12.35,0,*5E
1487452094.16,2933,11.75,73376.8,-11.23,-12.25,-12.35,0,*5B
1487452095.45,2934,11.75,73378.3,-11.21,-12.35,-12.35,0,*5F
1487452096.68,2935,11.75,73378.8,-11.23,-12.35,-12.39,0,*50